Regional Weather Roundup
Issued by NWS New Orleans/Baton Rouge, LA

Home | Current Version | Previous Version | Text Only | Print | Product List | Glossary Off
Versions: 1 2 3 4 5 6 7 8 9 10 11 12 13 14 15 16 17 18 19 20 21 22 23 24 25 26 27 28 29 30 31 32 33 34 35 36 37 38 39 40 41 42 43 44 45 46 47 48 49 50

711
ASUS44 KLIX 011201
RWRLIX
NEW ORLEANS REGIONAL WEATHER ROUNDUP
NATIONAL WEATHER SERVICE NEW ORLEANS LA
700 AM CDT MON SEP 01 2014

NOTE: "FAIR" INDICATES FEW OR NO CLOUDS BELOW 12,000 FEET WITH NO
      SIGNIFICANT WEATHER AND/OR OBSTRUCTIONS TO VISIBILITY.
      SKY/WX - SKY CONDITION AND SIGNIFICANT WEATHER.
      TMP - AIR TEMPERATURE.     DP    - DEWPOINT TEMPERATURE.
      RH  - RELATIVE HUMIDITY.   PRES  - PRESSURE.
      HI  - HEAT INDEX.          WCI   - WIND CHILL INDEX.

*  THESE STATIONS ARE NOT NWS OR FAA STATIONS AND ARE NOT UNDER
   NWS QUALITY CONTROL.

LAZ038-040-048-061>063-065>067-069-011300-
SOUTHEAST LOUISIANA

CITY           SKY/WX    TMP DP  RH WIND       PRES   REMARKS
N.O. AUDUBON   NOT AVBL
N.O. INTL ARPT MOCLDY    81  76  84 E6        30.03R
6HR MIN TEMP:  80; 6HR MAX TEMP:  82;

N.O. LAKEFRONT CLEAR     80  77  90 SE5       30.04R
6HR MIN TEMP:  80; 6HR MAX TEMP:  81;

N.O. DOWNTOWN*   N/A     82  73  74 CALM      30.04R
6HR MIN TEMP:  81; 6HR MAX TEMP:  82;

SLIDELL        PTCLDY    76  73  91 CALM      30.04R
6HR MIN TEMP:  75; 6HR MAX TEMP:  80;

BATON ROUGE    CLEAR     75  73  93 CALM      30.03R FOG
6HR MIN TEMP:  74; 6HR MAX TEMP:  78;

BOOTHVILLE     PTCLDY    83  77  82 SE6       30.04R
6HR MIN TEMP:  81; 6HR MAX TEMP:  83;

BELLE CHASSE   PTCLDY    82  75  79 SE3       30.03R
6HR MIN TEMP:  79; 6HR MAX TEMP:  83;

BOGALUSA*        N/A     73  70  90 CALM      30.06R
6HR MIN TEMP:  72; 6HR MAX TEMP:  76;

GALLIANO*      NOT AVBL
NEW ROADS*       N/A     75  74  98 CALM      30.03R FOG
6HR MIN TEMP:  74; 6HR MAX TEMP:  77;

GONZALES*        N/A     75  75 100 CALM      30.02R FOG
6HR MIN TEMP:  74; 6HR MAX TEMP:  79;

HAMMOND*       NOT AVBL
HOUMA*         NOT AVBL
PORT FOURCHON* MOSUNNY   84  77  79 SE10      30.04R

$$

MSZ070-080>082-011300-
SOUTHERN MISSISSIPPI

CITY           SKY/WX    TMP DP  RH WIND       PRES   REMARKS
MCCOMB         FOG       74  73  97 CALM      30.05S VSB 1/2
6HR MIN TEMP:  73; 6HR MAX TEMP:  76;

GULFPORT       PTCLDY    77  75  93 CALM      30.04R
6HR MIN TEMP:  77; 6HR MAX TEMP:  83;

BILOXI         PTCLDY    80  76  88 E5        30.05R
6HR MIN TEMP:  80; 6HR MAX TEMP:  84;

PASCAGOULA     FOG       71  71 100 CALM      30.05S VSB 1/4
6HR MIN TEMP:  71; 6HR MAX TEMP:  75;


$$

COASTAL OBSERVATIONS
LAKE AND NEARSHORE STATIONS

STATION/POSITION TIME  TEMP    WIND        PRES    WAVE
                       AIR SEA DIR/SP/G            HT/PER
                 (UTC) (F)     (DEG/KT/KT) (MB)    (FT/S)
PASCAGOULA       1100   83     130/  7/  9 1017.0
WAVELAND YACHT   1100   84     150/  8/ 11 1016.6
GRAND ISLE       1100   84 84  150/  6/ 10 1017.1
SOUTHWEST PASS   1100   85 90  140/ 13/ 15 1017.1
NEW CANAL        1100   80 81     CALM     1017.3
SHELL BEACH      1100   82 80  130/  7/  8 1016.9

OFFSHORE STATIONS

STATION/POSITION TIME  TEMP    WIND        PRES    WAVE
                       AIR SEA DIR/SP/G            HT/PER
                 (UTC) (F)     (DEG/KT/KT) (MB)    (FT/S)
64 S DAUPHIN ISL 1200   84 85  130/ 12/ 16 1017.6

$$




USA.gov is the U.S. government's official web portal to all federal, state and local government web resources and services.